El Segundo, CA

9:20 AM PST on February 28, 2017 (GMT -0800)
Los Angeles International

Weather History for KLAX - January, 2014

Change the Weather History Date:

Thursday, January 30, 2014

  Actual Average Record
Temperature  
Mean Temperature 60 °F 57 °F  
Max Temperature 62 °F 65 °F 83 °F (1992)
Min Temperature 57 °F 49 °F 36 °F (1945)
Degree Days  
Heating Degree Days 5 8  
Month to date heating degree days 116 251  
Since 1 July heating degree days 409 693  
Cooling Degree Days 0 0  
Month to date cooling degree days 16 0  
Year to date cooling degree days 16 0  
Growing Degree Days 9 (Base 50)    
Moisture  
Dew Point 52 °F    
Average Humidity 77    
Maximum Humidity 86    
Minimum Humidity 67    
Precipitation  
Precipitation T in 0.09 in 1.18 in (1979)
Month to date precipitation T 2.61  
Year to date precipitation T 2.61  
Since 1 July precipitation 1.04  
Sea Level Pressure  
Sea Level Pressure 29.92 in    
Wind  
Wind Speed 7 mph (SSW)    
Max Wind Speed 15 mph    
Max Gust Speed 20 mph    
Visibility 7 miles    
Events Fog , Rain    
T = Trace of Precipitation, MM = Missing Value Source: NWS Daily Summary

Daily Weather History Graph

Daily Weather History Graph

Search for Another Location

Airport or City:

Trip Planner

Search our weather history database for the weather conditions in past years. The results will help you decide how hot, cold, wet, or windy it might be!

Date:

Astronomy

Jan. 30, 2014 Rise Set
Actual Time 6:51 AM PST 5:22 PM PST
Civil Twilight 6:25 AM PST 5:48 PM PST
Nautical Twilight 5:55 AM PST 6:18 PM PST
Astronomical Twilight 5:26 AM PST 6:48 PM PST
Moon 6:23 AM PST (1/30) 5:36 PM PST (1/30)
Length of Visible Light 11h 23m
Length of Day
10h 30m
Waning Crescent, 0% of the Moon is Illuminated
Jan 30
Waning Crescent
Jan 30
New
Feb 6
First Quarter
Feb 14
Full
Feb 22
Last Quarter

Hourly Weather History & Observations

Time (PST) Temp. Dew Point Humidity Pressure Visibility Wind Dir Wind Speed Gust Speed Precip Events Conditions
12:53 AM 57.9 °F 54.0 °F 87% 29.96 in 4.0 mi Variable 4.6 mph - N/A   Overcast
1:53 AM 59.0 °F 54.0 °F 83% 29.95 in 6.0 mi ESE 8.1 mph - N/A Fog Patches of Fog
2:53 AM 59.0 °F 53.1 °F 81% 29.94 in 6.0 mi East 8.1 mph - N/A Fog Patches of Fog
3:39 AM 57.2 °F 51.8 °F 82% 29.93 in 6.0 mi East 8.1 mph - N/A Fog Patches of Fog
3:53 AM 57.9 °F 52.0 °F 81% 29.93 in 6.0 mi East 9.2 mph - N/A Fog Patches of Fog
4:53 AM 57.0 °F 51.1 °F 81% 29.93 in 6.0 mi East 6.9 mph - N/A Fog Patches of Fog
5:53 AM 57.9 °F 51.1 °F 78% 29.94 in 5.0 mi Variable 4.6 mph - N/A Fog Patches of Fog
6:42 AM 57.2 °F 50.0 °F 77% 29.93 in 3.0 mi East 8.1 mph - N/A Fog Patches of Fog
6:53 AM 57.0 °F 50.0 °F 77% 29.93 in 3.0 mi East 6.9 mph - N/A Fog Patches of Fog
7:53 AM 59.0 °F 50.0 °F 72% 29.95 in 3.0 mi ENE 5.8 mph - N/A Fog Patches of Fog
8:53 AM 59.0 °F 50.0 °F 72% 29.97 in 3.0 mi Calm Calm - N/A   Overcast
9:53 AM 61.0 °F 51.1 °F 70% 29.97 in 4.0 mi SE 4.6 mph - N/A   Mostly Cloudy
10:53 AM 61.0 °F 50.0 °F 67% 29.96 in 4.0 mi SE 4.6 mph - N/A   Overcast
11:53 AM 61.0 °F 51.1 °F 70% 29.92 in 5.0 mi South 9.2 mph - N/A   Haze
12:45 PM 62.6 °F 51.8 °F 68% 29.92 in 6.0 mi Calm Calm - N/A   Haze
12:53 PM 62.1 °F 51.1 °F 67% 29.92 in 6.0 mi SE 4.6 mph - N/A   Haze
1:53 PM 62.1 °F 52.0 °F 70% 29.90 in 7.0 mi SSW 5.8 mph - N/A   Overcast
2:21 PM 60.8 °F 51.8 °F 72% 29.90 in 7.0 mi SW 6.9 mph - N/A   Mostly Cloudy
2:53 PM 60.1 °F 53.1 °F 78% 29.90 in 7.0 mi WSW 6.9 mph - N/A   Mostly Cloudy
3:53 PM 61.0 °F 53.1 °F 75% 29.89 in 8.0 mi SW 5.8 mph - N/A   Overcast
4:53 PM 60.1 °F 53.1 °F 78% 29.89 in 7.0 mi South 6.9 mph - N/A   Overcast
5:08 PM 60.8 °F 53.6 °F 77% 29.89 in 9.0 mi SW 6.9 mph - N/A   Overcast
5:37 PM 60.8 °F 53.6 °F 77% 29.89 in 8.0 mi SW 6.9 mph - N/A   Overcast
5:53 PM 60.1 °F 54.0 °F 80% 29.89 in 8.0 mi SSW 5.8 mph - N/A   Overcast
6:09 PM 60.8 °F 53.6 °F 77% 29.89 in 8.0 mi SSW 6.9 mph - N/A   Overcast
6:53 PM 59.0 °F 54.0 °F 83% 29.89 in 9.0 mi West 12.7 mph - 0.00 in Rain Light Rain
7:16 PM 59.0 °F 53.6 °F 82% 29.90 in 10.0 mi West 13.8 mph - 0.00 in   Overcast
7:22 PM 59.0 °F 53.6 °F 82% 29.90 in 10.0 mi West 10.4 mph - 0.00 in   Overcast
7:42 PM 59.0 °F 53.6 °F 82% 29.89 in 10.0 mi West 11.5 mph - 0.00 in   Overcast
7:53 PM 59.0 °F 53.1 °F 81% 29.89 in 10.0 mi WSW 11.5 mph - 0.00 in   Mostly Cloudy
8:53 PM 59.0 °F 53.1 °F 81% 29.90 in 10.0 mi WSW 8.1 mph - N/A   Mostly Cloudy
9:23 PM 59.0 °F 53.6 °F 82% 29.91 in 10.0 mi West 9.2 mph - N/A   Mostly Cloudy
9:53 PM 59.0 °F 53.1 °F 81% 29.91 in 10.0 mi West 8.1 mph - N/A   Mostly Cloudy
10:17 PM 59.0 °F 51.8 °F 77% 29.91 in 10.0 mi West 9.2 mph - N/A   Mostly Cloudy
10:53 PM 59.0 °F 52.0 °F 78% 29.92 in 10.0 mi WSW 10.4 mph - N/A   Overcast
11:09 PM 59.0 °F 51.8 °F 77% 29.92 in 10.0 mi WSW 11.5 mph - N/A   Mostly Cloudy
11:47 PM 59.0 °F 51.8 °F 77% 29.91 in 10.0 mi West 10.4 mph - N/A   Mostly Cloudy
11:53 PM 59.0 °F 51.1 °F 75% 29.91 in 10.0 mi West 12.7 mph - N/A   Mostly Cloudy